Terminal Aerodrome Forecast
Issued by NWS Cleveland, OH

Home | Current Version | Previous Version | Text Only | Print | Product List | Glossary Off
Versions: 1 2 3 4 5 6 7 8 9 10 11 12 13 14 15 16 17 18 19 20 21 22 23 24

000
FTUS41 KCLE 182300
TAFCLE
TAF
KCLE 182339Z 1900/2006 26008KT 6SM -SN OVC019
     FM190500 32006KT 6SM -SN OVC015
      TEMPO 1906/1910 3SM -SN
     FM191300 32006KT P6SM OVC012
     FM192100 32006KT P6SM OVC018
     FM200000 30005KT P6SM BKN020=

USA.gov is the U.S. government's official web portal to all federal, state and local government web resources and services.